Tracking 19576 objects as of 17-Feb-2019
HD Live streaming from Space Station
objects crossing your sky now

GEOS 2

Track GEOS 2 now!
GEOS 2 is classified as:


NORAD ID: 10981
Int'l Code: 1978-071A
Perigee: 36,013.8 km
Apogee: 36,076.1 km
Inclination: 11.7 °
Period: 1,448.9 minutes
Semi major axis: 42415 km
RCS: 2.0304 m2 (large)
Launch date: July 14, 1978
Source: European Space Agency (ESA)
Launch site: AIR FORCE EASTERN TEST RANGE (AFETR)
aabbcc
Your satellite tracking list
Your tracking list is empty




NASA's NSSDC Master Catalog

Two Line Element Set (TLE):
1 10981U 78071A   19047.52134924 -.00000223 +00000-0 +00000-0 0  9991
2 10981 011.7461 315.9879 0007337 334.9268 208.7809 00.99382345147388
Source of the keplerian elements: AFSPC